WB5OMR-9 Weather Reports


time (UTC)temp
C
wind
direction
speed
KPH
gust
KPH
rain 1hr
cm
rain 24hr
cm
rain mn
cm
humidity
%
barometer
mb
20260902003729 36 90 0.0 0.0 0.00 0.00 0.00 34 1012.9
20260902002728 37 112 0.0 0.0 0.00 0.00 0.00 34 1012.9
20260902001727 37 135 0.0 0.0 0.00 0.00 0.00 33 1012.9
20260902000726 37 135 0.0 0.0 0.00 0.00 0.00 32 1012.9
20260901235725 38 135 0.0 0.0 0.00 0.00 0.00 32 1012.9
20260901234724 38 90 0.0 0.0 0.00 0.00 0.00 31 1012.9
20260901233722 38 112 0.0 0.0 0.00 0.00 0.00 31 1012.9
20260901232721 39 112 0.0 0.0 0.00 0.00 0.00 30 1012.9
20260901231720 40 270 0.0 0.0 0.00 0.00 0.00 29 1012.9
20260901230719 40 247 0.0 0.0 0.00 0.00 0.00 29 1012.9
20260901225717 40 112 0.0 0.0 0.00 0.00 0.00 28 1012.9
20260901224716 41 112 0.0 0.0 0.00 0.00 0.00 28 1012.5
20260901223715 41 135 0.0 0.0 0.00 0.00 0.00 28 1012.9
20260901222714 41 112 0.0 0.0 0.00 0.00 0.00 28 1012.9
20260901221713 41 247 0.0 0.0 0.00 0.00 0.00 29 1012.9
20260901220711 41 157 0.0 0.0 0.00 0.00 0.00 28 1012.9
20260901215628 42 157 0.0 0.0 0.00 0.00 0.00 27 1012.9
20260901214627 42 112 0.0 0.0 0.00 0.00 0.00 27 1013.2
20260901213626 42 112 0.0 0.0 0.00 0.00 0.00 28 1013.2
20260901212625 41 112 0.0 0.0 0.00 0.00 0.00 28 1013.2
20260901211624 41 157 0.0 0.0 0.00 0.00 0.00 28 1013.2
20260901210623 41 157 0.0 0.0 0.00 0.00 0.00 28 1013.5
20260901205622 41 157 0.0 0.0 0.00 0.00 0.00 28 1013.5
20260901204621 41 45 0.0 0.0 0.00 0.00 0.00 29 1013.9
20260901203619 41 202 0.0 0.0 0.00 0.00 0.00 29 1013.9
20260901202618 41 180 0.0 0.0 0.00 0.00 0.00 29 1014.2
20260901201617 42 90 0.0 0.0 0.00 0.00 0.00 29 1014.2
20260901200616 41 157 0.0 0.0 0.00 0.00 0.00 29 1014.2
20260901195615 41 225 0.0 0.0 0.00 0.00 0.00 30 1014.6
20260901194613 42 180 0.0 0.0 0.00 0.00 0.00 29 1014.6
20260901193612 43 90 0.0 0.0 0.00 0.00 0.00 29 1014.9
20260901192611 42 67 0.0 0.0 0.00 0.00 0.00 30 1014.9
20260901191610 42 90 0.0 0.0 0.00 0.00 0.00 31 1014.9
20260901190609 41 112 0.0 0.0 0.00 0.00 0.00 32 1015.2
20260901185525 41 90 0.0 0.0 0.00 0.00 0.00 33 1015.6
20260901184524 40 112 0.0 0.0 0.00 0.00 0.00 34 1015.6
20260901183523 41 225 0.0 0.0 0.00 0.00 0.00 32 1015.9
20260901182522 40 135 0.0 0.0 0.00 0.00 0.00 35 1016.6
20260901181521 39 90 0.0 0.0 0.00 0.00 0.00 35 1016.3
20260901180519 39 180 0.0 0.0 0.00 0.00 0.00 36 1015.6
20260901175436 39 157 0.0 0.0 0.00 0.00 0.00 35 1015.2
20260901174352 39 157 0.0 0.0 0.00 0.00 0.00 36 1015.9
20260901173351 38 90 0.0 0.0 0.00 0.00 0.00 38 1016.3
20260901172350 38 135 0.0 0.0 0.00 0.00 0.00 39 1016.3
20260901171348 37 112 0.0 0.0 0.00 0.00 0.00 41 1016.6
20260901170305 37 90 0.0 0.0 0.00 0.00 0.00 44 1016.6
20260901165222 36 112 0.0 0.0 0.00 0.00 0.00 45 1016.6
20260901164221 36 247 0.0 0.0 0.00 0.00 0.00 46 1016.6
20260901163137 35 180 0.0 0.0 0.00 0.00 0.00 49 1016.6
20260901162136 34 112 0.0 0.0 0.00 0.00 0.00 50 1016.6
20260901161136 34 180 0.0 0.0 0.00 0.00 0.00 51 1016.6
20260901160135 33 135 0.0 0.0 0.00 0.00 0.00 53 1016.6
20260901155134 33 135 0.0 0.0 0.00 0.00 0.00 54 1016.6
20260901154132 33 135 0.0 0.0 0.00 0.00 0.00 57 1016.6
20260901153131 32 225 0.0 0.0 0.00 0.00 0.00 57 1016.6
20260901152130 32 225 0.0 0.0 0.00 0.00 0.00 57 1016.6
20260901151129 32 157 0.0 0.0 0.00 0.00 0.00 60 1016.6
20260901150128 32 202 0.0 0.0 0.00 0.00 0.00 62 1016.6
20260901145044 31 247 0.0 0.0 0.00 0.00 0.00 67 1016.6
20260901144042 31 202 0.0 0.0 0.00 0.00 0.00 69 1016.6
20260901143040 30 112 0.0 0.0 0.00 0.00 0.00 72 1016.6
20260901142039 29 90 0.0 0.0 0.00 0.00 0.00 75 1016.6
20260901140956 28 90 0.0 0.0 0.00 0.00 0.00 78 1016.3
20260901135912 27 157 0.0 0.0 0.00 0.00 0.00 80 1016.3
20260901134912 27 157 0.0 0.0 0.00 0.00 0.00 82 1016.3
20260901133828 26 135 0.0 0.0 0.00 0.00 0.00 83 1016.3
20260901132827 26 67 0.0 0.0 0.00 0.00 0.00 84 1016.3
20260901131826 26 90 0.0 0.0 0.00 0.00 0.00 84 1016.3
20260901130825 25 67 0.0 0.0 0.00 0.00 0.00 84 1016.3
20260901125824 25 45 0.0 0.0 0.00 0.00 0.00 83 1016.3
20260901124741 25 112 0.0 0.0 0.00 0.00 0.00 83 1016.3
20260901123740 25 67 0.0 0.0 0.00 0.00 0.00 82 1015.9
20260901122656 25 67 0.0 0.0 0.00 0.00 0.00 82 1015.9
20260901121656 25 45 0.0 0.0 0.00 0.00 0.00 81 1015.9
20260901120655 25 45 0.0 0.0 0.00 0.00 0.00 81 1015.9
20260901115654 25 45 0.0 0.0 0.00 0.00 0.00 80 1015.9
20260901114653 25 45 0.0 0.0 0.00 0.00 0.00 80 1015.9
20260901113651 26 45 0.0 0.0 0.00 0.00 0.00 79 1015.9
20260901112651 26 45 0.0 0.0 0.00 0.00 0.00 79 1015.9
20260901111649 26 90 0.0 0.0 0.00 0.00 0.00 79 1015.9
20260901110648 26 90 0.0 0.0 0.00 0.00 0.00 79 1015.9
20260901105604 26 90 0.0 0.0 0.00 0.00 0.00 79 1015.9
20260901104521 26 90 0.0 0.0 0.00 0.00 0.00 79 1015.9
20260901103520 26 90 0.0 0.0 0.00 0.00 0.00 78 1015.9
20260901102518 26 90 0.0 0.0 0.00 0.00 0.00 78 1015.9
20260901101517 26 90 0.0 0.0 0.00 0.00 0.00 77 1015.9
20260901100516 26 90 0.0 0.0 0.00 0.00 0.00 77 1015.9
20260901095515 26 90 0.0 0.0 0.00 0.00 0.00 77 1015.9
20260901094514 26 90 0.0 0.0 0.00 0.00 0.00 77 1015.9
20260901093512 26 90 0.0 0.0 0.00 0.00 0.00 77 1015.9
20260901092511 26 135 0.0 0.0 0.00 0.00 0.00 77 1015.9
20260901091510 26 135 0.0 0.0 0.00 0.00 0.00 77 1015.9
20260901090509 26 135 0.0 0.0 0.00 0.00 0.00 77 1015.9
20260901085508 26 135 0.0 0.0 0.00 0.00 0.00 77 1016.3
20260901084507 26 112 0.0 0.0 0.00 0.00 0.00 77 1016.3
20260901083506 26 90 0.0 0.0 0.00 0.00 0.00 77 1015.9
20260901082505 26 135 0.0 0.0 0.00 0.00 0.00 76 1015.9
20260901081504 26 157 0.0 0.0 0.00 0.00 0.00 76 1015.9
20260901080503 26 112 0.0 0.0 0.00 0.00 0.00 76 1015.9
20260901075502 26 135 0.0 0.0 0.00 0.00 0.00 76 1015.9
20260901074501 27 135 0.0 0.0 0.00 0.00 0.00 75 1015.9
20260901073500 27 157 0.0 0.0 0.00 0.00 0.00 75 1015.9
20260901072459 27 157 0.0 0.0 0.00 0.00 0.00 74 1015.9
20260901071458 27 157 0.0 0.0 0.00 0.00 0.00 73 1015.9
20260901070457 27 157 0.0 0.0 0.00 0.00 0.00 73 1015.9
20260901065456 27 157 0.0 0.0 0.00 0.00 0.00 72 1015.9
20260901064455 27 135 0.0 0.0 0.00 0.00 0.00 71 1015.9
20260901063454 27 180 0.0 0.0 0.00 0.00 0.00 70 1015.9
20260901062453 27 135 0.0 0.0 0.00 0.00 0.00 69 1015.9
20260901061410 27 135 0.0 0.0 0.00 0.00 0.00 69 1015.9
20260901060408 28 180 0.0 0.0 0.00 0.00 0.00 68 1015.6
20260901055407 28 157 0.0 0.0 0.00 0.00 0.00 67 1015.6
20260901054405 28 135 0.0 0.0 0.00 0.00 0.00 66 1015.2
20260901053404 28 157 0.0 0.0 0.00 0.00 0.00 65 1015.2
20260901052321 28 135 0.0 0.0 0.00 0.00 0.00 64 1015.2
20260901051238 28 112 0.0 0.0 0.00 0.00 0.00 63 1015.2
20260901050237 29 135 0.0 0.0 0.00 0.00 0.00 63 1015.2
20260901045154 29 112 0.0 0.0 0.00 0.00 0.00 62 1015.2
20260901044110 29 157 0.0 0.0 0.00 0.00 0.00 61 1015.2
20260901043110 30 135 0.0 0.0 0.00 0.00 0.00 60 1014.9
20260901042109 30 135 0.0 0.0 0.00 0.00 0.00 58 1015.2
20260901041108 30 135 0.0 0.0 0.00 0.00 0.00 56 1014.9
20260901040107 30 135 0.0 0.0 0.00 0.00 0.00 56 1014.9
20260901035105 30 135 0.0 0.0 0.00 0.00 0.00 55 1014.9
20260901034104 31 157 0.0 0.0 0.00 0.00 0.00 55 1014.9
20260901033103 31 135 0.0 0.0 0.00 0.00 0.00 54 1014.6
20260901032102 31 157 0.0 0.0 0.00 0.00 0.00 53 1014.6
20260901031019 31 157 0.0 0.0 0.00 0.00 0.00 52 1014.2
20260901025934 31 135 0.0 0.0 0.00 0.00 0.00 51 1013.9
20260901024851 32 135 0.0 0.0 0.00 0.00 0.00 49 1013.2
20260901023850 32 135 0.0 0.0 0.00 0.00 0.00 49 1013.2
20260901022849 32 135 0.0 0.0 0.00 0.00 0.00 48 1014.2
20260901021848 33 135 0.0 0.0 0.00 0.00 0.00 46 1014.6
20260901020846 33 112 0.0 0.0 0.00 0.00 0.00 44 1013.9
20260901015845 33 90 0.0 0.0 0.00 0.00 0.00 43 1013.5
20260901014844 33 90 0.0 0.0 0.00 0.00 0.00 42 1013.5
20260901013843 34 90 0.0 0.0 0.00 0.00 0.00 41 1013.2
20260901012842 34 112 0.0 0.0 0.00 0.00 0.00 40 1013.2
20260901011841 35 112 0.0 0.0 0.00 0.00 0.00 40 1013.2
20260901010839 35 112 0.0 0.0 0.00 0.00 0.00 39 1013.2
20260901005839 35 90 0.0 0.0 0.00 0.00 0.00 38 1013.2
20260901004837 36 112 0.0 0.0 0.00 0.00 0.00 37 1012.9